Location: Wapato
(46.4478°N, 120.4212°W)
Time: 07:05:40
(UTC+00:00)

Explorer 7 - All Passes

Search period start: 10 May 2026 00:00
Search period end: 20 May 2026 00:00
Orbit: 427 x 536 km, 50.2° (Epoch: 9 May)

Date Brightness Start Highest point End Pass type
(mag) Time Alt. Az. Time Alt. Az. Time Alt. Az.
10 May - 14:57:53 10° SW 15:01:24 44° SSE 15:05:04 10° ENE daylight
10 May - 16:35:58 10° W 16:39:41 58° NNW 16:43:34 10° ENE daylight
10 May - 18:14:38 10° WNW 18:18:24 49° N 18:22:17 10° E daylight
10 May - 19:52:59 10° WNW 19:56:57 79° SSW 20:00:59 10° ESE daylight
10 May - 21:31:59 10° W 21:34:51 19° SW 21:37:45 10° S daylight
11 May - 14:30:17 10° SW 14:33:44 41° SE 14:37:19 10° ENE daylight
11 May - 16:08:17 10° W 16:11:59 60° NNW 16:15:51 10° ENE daylight
11 May - 17:46:57 10° WNW 17:50:41 48° N 17:54:33 10° E daylight
11 May - 19:25:18 10° WNW 19:29:14 83° SSW 19:33:17 10° ESE daylight
11 May - 21:04:12 10° W 21:07:11 20° SW 21:10:12 10° S daylight
12 May - 14:02:40 10° SW 14:06:03 38° SE 14:09:35 10° ENE daylight
12 May - 15:40:36 10° W 15:44:16 62° NNW 15:48:07 10° ENE daylight
12 May - 17:19:15 10° WNW 17:22:57 47° N 17:26:48 10° E daylight
12 May - 18:57:36 10° WNW 19:01:32 87° SSW 19:05:33 10° ESE daylight
12 May - 20:36:26 10° W 20:39:30 22° SW 20:42:38 10° S daylight
13 May - 13:35:03 10° SSW 13:38:21 35° SE 13:41:48 10° ENE daylight
13 May - 15:12:53 10° W 15:16:33 64° NNW 15:20:22 10° ENE daylight
13 May - 16:51:33 10° WNW 16:55:13 46° N 16:59:02 10° E daylight
13 May - 18:29:54 10° WNW 18:33:48 89° N 18:37:49 10° ESE daylight
13 May - 20:08:39 10° W 20:11:48 23° SW 20:15:01 10° SSE daylight
14 May - 13:07:26 10° SSW 13:10:40 33° SE 13:14:02 10° E daylight
14 May - 14:45:10 10° W 14:48:49 66° NNW 14:52:37 10° ENE daylight
14 May - 16:23:50 10° WNW 16:27:28 46° N 16:31:15 10° ENE daylight
14 May - 18:02:12 10° WNW 18:06:04 86° NNE 18:10:03 10° ESE daylight
14 May - 19:40:52 10° W 19:44:05 24° SW 19:47:23 10° SSE daylight
15 May - 12:39:48 10° SSW 12:42:58 30° SE 12:46:14 10° E daylight
15 May - 14:17:27 10° WSW 14:21:04 69° NNW 14:24:51 10° ENE daylight
15 May - 15:56:06 10° WNW 15:59:43 45° N 16:03:27 10° ENE daylight
15 May - 17:34:28 10° WNW 17:38:18 82° NNE 17:42:17 10° ESE daylight
15 May - 19:13:05 10° W 19:16:23 26° SW 19:19:44 10° SSE daylight
16 May - 12:12:11 10° SSW 12:15:15 28° SE 12:18:26 10° E daylight
16 May - 13:49:43 10° WSW 13:53:19 72° NNW 13:57:04 10° ENE daylight
16 May - 15:28:21 10° WNW 15:31:56 45° N 15:35:39 10° ENE daylight
16 May - 17:06:44 10° WNW 17:10:32 78° NNE 17:14:29 10° ESE daylight
16 May - 18:45:18 10° W 18:48:38 28° SW 18:52:04 10° SSE daylight
17 May - 11:44:33 10° SSW 11:47:32 26° SE 11:50:36 10° E visible
17 May - 13:21:58 10° WSW 13:25:33 75° NNW 13:29:17 10° ENE daylight
17 May - 15:00:36 10° WNW 15:04:09 45° N 15:07:50 10° ENE daylight
17 May - 16:39:00 10° WNW 16:42:46 75° NNE 16:46:41 10° ESE daylight
17 May - 18:17:30 10° W 18:20:53 29° SW 18:24:22 10° SSE daylight
18 May - 11:16:55 10° SSW 11:19:48 24° SE 11:22:45 10° E visible
18 May - 12:54:13 10° WSW 12:57:46 79° NNW 13:01:29 10° ENE daylight
18 May - 14:32:50 10° WNW 14:36:21 45° N 14:40:01 10° ENE daylight
18 May - 16:11:15 10° WNW 16:14:59 72° NNE 16:18:52 10° ESE daylight
18 May - 17:49:42 10° W 17:53:07 31° SW 17:56:38 10° SSE daylight
19 May - 10:49:17 10° SSW 10:52:03 22° SE 10:54:53 10° E visible
19 May - 12:26:27 10° WSW 12:29:59 82° NNW 12:33:41 10° ENE daylight
19 May - 14:05:03 10° WNW 14:08:33 44° N 14:12:11 10° ENE daylight
19 May - 15:43:28 10° WNW 15:47:11 68° NNE 15:51:02 10° ESE daylight
19 May - 17:21:53 10° W 17:25:21 33° SW 17:28:54 10° SSE daylight
